www.pogodaiklimat.ru

Погода и климат >> Архив погоды >> Россия >> Челябинская область >> Аргаяш


ПОГОДА в Аргаяше

  • Прогноз погоды в Аргаяше
  • Монитор погоды в Аргаяше

АРХИВ ПОГОДЫ в Аргаяше

Время (UTC), дата Ветер
(напр.,м/с)
 
Видим.   Явления Облачность Т
(С)
Тd
(С)
f
(%)
Тe
(С)
Тes
(С)
Комфортность P
(гПа)
Po
(гПа)
Тmin
(С)
Tmax
(С)
R
(мм)
R24
(мм)
S
(см)
18 11.08 ЮЗ 3 10 км 10/10 600 м
[Sc]
+20.9 +9.0 46 +23 +23 комфорт 1000.6 971.5
21 11.08 СЗ 1 10 км 10/10 600 м
[Cb cap]
+17.8 +13.0 73 +19 +19 1001.1 971.8
00 12.08 СЗ 1 4000 м слаб. ливневой дождь 10/10 600 м
[Cb cap]
+15.1 +13.4 90 +16 +16 1001.7 972.0
03 12.08 В 2 10 км {ливн. осадки} 10/10 600 м
[Cb cap]
+18.1 +14.0 77 +19 +19 1000.9 971.6 +14.0 0.0
06 12.08 В 2 20 км {ливн. осадки} 9/3 600 м
[Sc Ac cuf Cc]
+22.1 +13.0 56 +25 +29 комфорт 999.4 970.5
09 12.08 СВ 1 20 км 9/5 600 м
[Sc Ac cast Cc]
+22.6 +13.0 55 +26 +30 жарко 999.0 970.1
12 12.08 СВ 2 20 км 9/6 600 м
[Sc Ac cast]
+22.4 +14.5 61 +26 +27 жарко 997.7 968.9
15 12.08 СЗ 1 10 км 9/9 600 м
[Sc]
+20.0 +15.2 74 +23 +23 комфорт 997.3 968.3 +23.7
18 12.08 В 1 10 км 9/9 600 м
[Sc]
+18.3 +12.3 68 +20 +20 997.4 968.2
21 12.08 СВ 2 10 км 8/8 600 м
[Sc]
+17.0 +12.4 74 +17 +17 997.2 967.9
00 13.08 СВ 2 10 км 9/9 600 м
[Sc]
+16.8 +13.5 81 +17 +17 997.3 968.0
03 13.08 СВ 2 10 км 9/9 600 м
[Sc]
+17.5 +14.2 81 +18 +18 998.6 969.2 +13.8
06 13.08 С 2 4000 м слаб. ливневой дождь 10/10 600 м
[Cb cap]
+17.4 +15.4 88 +18 +18 999.4 970.0
09 13.08 СВ 3 10 км {ливн. осадки} 10/10 600 м
[Cb cap]
+18.5 +15.5 83 +19 +19 999.8 970.5
12 13.08 С 1 4000 м слаб. ливневой дождь 9/9 600 м
[Cb cap]
+19.1 +16.5 85 +22 +22 комфорт 1000.7 971.5
15 13.08 С 2 10 км в посл. час ливневой дождь 10/10 600 м
[Cb cap]
+17.4 +15.6 89 +18 +18 1001.9 972.4 +19.5 0.8
18 13.08 С 4 10 км {ливн. осадки} 4/4 600 м
[Sc]
+18.0 +15.9 88 +18 +18 1002.5 973.1
21 13.08 СВ 4 10 км 8/8 600 м
[Cb cap]
+17.8 +14.1 79 +18 +18 1002.9 973.5
00 14.08 СВ 3 10 км 3/3 600 м
[Sc]
+15.9 +13.0 83 +15 +15 1005.0 975.3
03 14.08 СВ 3 20 км 4/4 600 м
[Sc]
+16.5 +13.4 82 +16 +17 1006.8 977.1 +15.1
06 14.08 СВ 3 20 км 9/5 600 м
[Cu Sc Ac cuf Cc]
+19.5 +14.3 72 +21 +24 комфорт 1008.3 978.8
09 14.08 СВ 2 20 км 9/6 600 м
[Cu med, cong Ac cuf Cc]
+20.4 +14.9 71 +24 +27 комфорт 1008.7 979.3
12 14.08 СВ 3 20 км 8/8 600 м
[Cb cap]
+21.8 +13.7 60 +25 +25 комфорт 1008.9 979.7
15 14.08 С 1 20 км 9/5 600 м
[Cb cap Ac trans Ci fib]
+20.6 +13.8 65 +24 +24 комфорт 1010.1 980.7 +22.2
18 14.08 СЗ 1 10 км 8/8 600 м
[Sc]
+16.2 +14.2 88 +17 +17 1012.0 982.1
21 14.08 З 1 4000 м дымка ясно +11.5 +10.6 94 +11 +11 1012.3 981.9
00 15.08 СЗ 1 4000 м местами туман поземный 3/3 600 м
[Sc]
+13.2 +13.2 100 +13 +13 1013.2 983.0
03 15.08 С 2 4000 м дымка 8/5 600 м
[Sc Ac cast]
+16.2 +16.1 99 +16 +17 1014.2 984.2 +9.3
06 15.08 С 2 20 км 6/3 600 м
[Cu med, cong Ac cuf Ci fib]
+21.7 +12.3 55 +24 +30 комфорт 1014.4 984.9
09 15.08 С 3 20 км 9/8 600 м
[Cu med, cong Ac cuf Ci fib]
+22.9 +11.9 50 +25 +27 комфорт 1014.0 984.7
12 15.08 СЗ 3 20 км 10/4 600 м
[Cu med, cong Ac cuf Cc]
+23.5 +12.4 50 +25 +27 комфорт 1013.8 984.5
15 15.08 З 1 20 км 10/1 600 м
[Sc diur, vesp Ac cuf Cs]
+19.9 +14.4 71 +23 +23 комфорт 1014.3 984.7 +24.2
18 15.08 З 2 10 км 4/4 600 м
[Sc]
+16.9 +14.5 86 +17 +17 1015.9 986.0
21 15.08 З 2 10 км ясно +13.0 +12.1 94 +12 +12 1016.5 986.2
00 16.08 З 2 4000 м местами туман поземный 8/4 600 м
[Sc Ac trans]
+11.6 +11.6 100 +10 +10 1017.6 987.0
03 16.08 СЗ 1 4000 м дымка 10/0
[Ac cast Cs]
+16.2 +14.5 90 +17 +19 1017.8 987.7 +11.5
06 16.08 СЗ 2 20 км 3/0
[Ac cast Ci fib]
+21.7 +13.8 61 +25 +33 комфорт 1017.2 987.6
09 16.08 СЗ 2 20 км 3/1 600 м
[Cu hum Ci fib]
+24.0 +13.5 52 +26 +36 жарко 1016.1 986.9
12 16.08 СЗ 2 20 км 1/0
[Ci fib]
+25.3 +11.5 42 +27 +31 жарко 1015.4 986.3
15 16.08 СЗ 2 20 км 3/0
[Ci fib]
+21.8 +14.0 61 +25 +25 комфорт 1016.1 986.7 +25.8
18 16.08 З 1 4000 м дымка 3/0
[Ci fib]
+12.9 +11.9 94 +13 +13 1017.6 987.2
21 16.08 З 1 4000 м дымка 3/0
[Ac trans Ci fib]
+11.5 +11.5 100 +11 +11 1018.2 987.6
00 17.08 ЮЗ 1 4000 м дымка 3/0
[Ci fib]
+11.2 +11.2 100 +11 +11 1018.2 987.6
03 17.08 З 2 4000 м дымка 10/0
[Ac trans Cc]
+17.1 +17.1 100 +17 +19 1018.0 988.0 +10.7
06 17.08 С 3 20 км 8/0
[Ci]
+23.9 +16.2 62 +27 +34 жарко 1017.6 988.3
09 17.08 В 1 20 км 10/0
[Cc]
+27.1 +13.7 44 +29 +40 жарко 1017.1 988.1
12 17.08 СЗ 2 20 км 3/0
[Ci fib]
+27.5 +11.7 37 +28 +33 жарко 1016.9 987.9
15 17.08 штиль 0 20 км 8/5 600 м
[Sc diur, vesp Ac trans]
+20.9 +17.0 78 +24 +24 комфорт 1017.5 987.9 +28.4
18 17.08 З 1 4000 м дымка 8/0
[Ac trans]
+16.3 +14.8 91 +17 +17 1018.2 988.1
21 17.08 штиль 0 4000 м дымка 8/8 600 м
[Sc]
+16.0 +15.1 94 +16 +16 1018.2 988.1
00 18.08 Ю 1 4000 м дымка 8/8 600 м
[Sc]
+14.8 +14.8 100 +15 +15 1018.7 988.5
03 18.08 З 2 4000 м дымка 9/8 600 м
[Sc Ac cast]
+19.1 +17.8 92 +21 +22 комфорт 1018.6 988.8 +14.7
06 18.08 С 2 20 км 9/0
[Ac As Cc]
+23.7 +17.1 67 +28 +33 душно 1019.5 990.1
09 18.08 В 2 20 км 4/0
[Cc]
+27.6 +14.4 44 +30 +40 жарко 1018.8 989.9
12 18.08 С 2 20 км 9/1 600 м
[Cu med, cong Ac trans Cc]
+27.4 +12.7 40 +29 +31 жарко 1019.1 990.0

 

Местоположение метеостанции Аргаяш (Челябинская область, Россия): широта 55.55 долгота 60.90 высота над уровнем моря 256 м.

В архиве по умолчанию представлена погода в Аргаяше за последнюю неделю. Архивные данные за месяц целиком и за предыдущие месяцы, начиная с января 2011 года, Вы можете получить, выбрав интересующий диапазон дат из раскрывающегося списка и нажав кнопку "Ввод!".


*Определитесь, кто Вы:
робот инопланетянин человек

Внимание! Время в таблицах - всемирное. Для получения местного времени необходимо прибавить поправку, которая равна 5 ч.

Смотрите также архив погоды в соседних городах и на ближайших метеорологических станциях:

Погода в Челябинске (Челябинская область, Россия) (51 км)
Погода в Верхнем Уфалее (Челябинская область, Россия) (70 км)
Погода в Бродокалмаке (Челябинская область, Россия) (74 км)
Погода в Миассе (Челябинская область, Россия) (80 км)
Погода в Златоусте (Челябинская область, Россия) (89 км)
Погода в Нязепетровске (Челябинская область, Россия) (100 км)
Погода в Сысерти (Свердловская область, Россия) (106 км)
Погода в Каменск-Уральском (Свердловская область, Россия) (115 км)
Погода в Мирном (Челябинская область, Россия) (118 км)
Погода в Южноуральске (Челябинская область, Россия) (128 км)

Пояснения к столбцам:

Ветер - указаны скорость ветра в м/с - средняя за 10 мин, порывы в срок и между сроками (в фигурных скобках) и направление, откуда дует ветер: С - северный, СВ - северо-восточный, В - восточный, ЮВ - юго-восточный, Ю - южный, ЮЗ - юго-западный, З - западный, СЗ - северо-западный.
Видимость - горизонтальная дальность видимости в метрах или километрах. При видимости от 1 до 10 км при отсутствии осадков обычно наблюдается дымка, при ухудшении видимости до 1 км и менее - туман. В сухую погоду видимость может ухудшаться дымом, пылью или мглою.
Явления - указаны атмосферные явления, наблюдавшиеся в срок или в последний час перед сроком; фигурными скобками обозначены явления, наблюдавшиеся между сроками (за 1-3 часа до срока); квадратными скобками обозначены град или гололедные отложения с указанием их диаметра в мм.
Облачность - указаны через наклонную черту общая и нижняя облачность в баллах и высота нижней границы облаков в метрах; квадратными скобками обозначены формы облаков: Ci - перистые, Cs - перисто-слоистые, Cc - перисто-кучевые, Ac - высококучевые, As - высокослоистые, Sc - слоисто-кучевые, Ns - слоисто-дождевые, Cu - кучевые, Cb - кучево-дождевые. Подробнее классификацию облаков см. в Атласе облаков (PDF).
T - Температура воздуха - температура, измеренная на высоте 2 м над землей.
Td - Температура точки росы - температура, при понижении до которой содержащийся в воздухе водяной пар достигнет насыщения.
f - Относительная влажность воздуха - влажноcть воздуха, измеренная на высоте 2 м над землей.
Te - Эффективная температура - температура, которую ощущает одетый по сезону человек в тени. Характеристика душности погоды. При расчете учитывается влияние влажности воздуха и скорости ветра на теплоощущения человека.
Tes - Эффективная температура на солнце - температура, которую ощущает человек, с поправкой на солнечный нагрев. Характеристика знойности погоды. Зависит от высоты солнца над горизонтом, облачности и скорости ветра. Ночью, в пасмурную погоду, а также при ветре 12 м/с и более поправка равна нулю.
P - Атмосферное давление - приведенное к уровню моря атмосферное давление.
Po - Атмосферное давление - измеренное на уровне метеостанции атмосферное давление.
Tmin - Минимальная температура - минимум температуры воздуха на высоте 2 м над землей.
Tmax - Максимальная температура - максимум температуры воздуха на высоте 2 м над землей.
R - Количество осадков - Количество выпавших осадков за период времени, мм. При наведении курсора мыши на число - период времени, за который выпало указанное количество осадков.
R24 - Количество осадков - Количество выпавших осадков за 24 часа, мм.
S - Снежный покров - Высота снежного покрова, см. При наведении курсора мыши на число - состояние снежного покрова и степень покрытия местности в баллах.